DTGRO EDDE-EDMO

Flight info

Callsign DTGRO
Flight time 1h 35m
Altitude 4000
Route LOCAL VFR
Aircraft C172/L-SFG/C

Departure

Time 2026-04-25 09:32
Airport Erfurt-Weimar Airport (EDDE)

Arrival

Time 2026-04-25 11:08
Airport Oberpfaffenhofen Airport (EDMO)
Time Latitude Longitude Altitude Speed Heading
2026-04-25 09:13 50.97548 10.96325 1020 ft 0 kts 97°
2026-04-25 09:23 50.97548 10.96326 1020 ft 1 kts 100°
2026-04-25 09:24 50.97545 10.96364 1020 ft 7 kts 96°
2026-04-25 09:24 50.97582 10.96413 1020 ft 10 kts
2026-04-25 09:24 50.97676 10.96431 1020 ft 17 kts
2026-04-25 09:24 50.97705 10.96581 1020 ft 20 kts 95°
2026-04-25 09:25 50.97683 10.96838 1019 ft 26 kts 95°
2026-04-25 09:25 50.97696 10.97041 1019 ft 3 kts 43°
2026-04-25 09:25 50.97726 10.97049 1019 ft 7 kts
2026-04-25 09:25 50.97761 10.97057 1019 ft 0 kts
2026-04-25 09:30 50.97762 10.97057 1019 ft 0 kts
2026-04-25 09:30 50.97767 10.97055 1019 ft 4 kts 353°
2026-04-25 09:31 50.97808 10.97065 1019 ft 13 kts
2026-04-25 09:31 50.97883 10.97043 1020 ft 16 kts 276°
2026-04-25 09:31 50.97915 10.96651 1022 ft 58 kts 279°
2026-04-25 09:31 50.97967 10.95956 1179 ft 67 kts 279°
2026-04-25 09:32 50.98020 10.95225 1389 ft 69 kts 277°
2026-04-25 09:32 50.98087 10.94432 1607 ft 71 kts 276°
2026-04-25 09:32 50.98088 10.93611 1883 ft 75 kts 252°
2026-04-25 09:32 50.97612 10.93327 2156 ft 92 kts 174°
2026-04-25 09:33 50.96972 10.93706 2368 ft 98 kts 167°
2026-04-25 09:33 50.96357 10.94033 2699 ft 90 kts 175°
2026-04-25 09:33 50.95726 10.94378 3082 ft 100 kts 166°
2026-04-25 09:33 50.95093 10.94744 3377 ft 96 kts 165°
2026-04-25 09:34 50.94457 10.94938 3752 ft 90 kts 182°
2026-04-25 09:34 50.93821 10.95069 3924 ft 103 kts 180°
2026-04-25 09:34 50.93057 10.95245 3987 ft 112 kts 174°
2026-04-25 09:34 50.92246 10.95562 4182 ft 124 kts 164°
2026-04-25 09:35 50.91466 10.96230 4330 ft 130 kts 149°
2026-04-25 09:35 50.90727 10.96787 4668 ft 118 kts 171°
2026-04-25 09:35 50.89875 10.96898 4729 ft 126 kts 181°
2026-04-25 09:35 50.88978 10.97023 4719 ft 130 kts 179°
2026-04-25 09:36 50.88087 10.97216 4870 ft 131 kts 176°
2026-04-25 09:36 50.87198 10.97480 4942 ft 128 kts 174°
2026-04-25 09:36 50.86335 10.97785 4904 ft 126 kts 172°
2026-04-25 09:36 50.85473 10.98123 4860 ft 128 kts 173°
2026-04-25 09:37 50.84596 10.98391 4822 ft 127 kts 175°
2026-04-25 09:37 50.83739 10.98680 4865 ft 126 kts 172°
2026-04-25 09:37 50.82866 10.98810 4841 ft 128 kts 202°
2026-04-25 09:37 50.82082 10.98405 4956 ft 116 kts 200°
2026-04-25 09:38 50.81243 10.98238 4836 ft 123 kts 188°
2026-04-25 09:38 50.80388 10.98277 4720 ft 125 kts 184°
2026-04-25 09:38 50.79536 10.98404 4775 ft 125 kts 182°
2026-04-25 09:38 50.78695 10.98731 4789 ft 133 kts 165°
2026-04-25 09:39 50.77852 10.99147 4868 ft 121 kts 168°
2026-04-25 09:39 50.77031 10.99463 4807 ft 119 kts 173°
2026-04-25 09:39 50.76192 10.99719 4795 ft 123 kts 176°
2026-04-25 09:40 50.74509 11.00323 4762 ft 125 kts 169°
2026-04-25 09:40 50.73670 11.00621 4628 ft 126 kts 181°
2026-04-25 09:40 50.72764 11.00656 4517 ft 127 kts 188°
2026-04-25 09:40 50.71879 11.00627 4448 ft 132 kts 190°
2026-04-25 09:41 50.70994 11.00492 4467 ft 126 kts 191°
2026-04-25 09:41 50.70094 11.00314 4527 ft 130 kts 194°
2026-04-25 09:41 50.69191 11.00056 4634 ft 133 kts 198°
2026-04-25 09:41 50.68277 10.99766 4695 ft 134 kts 192°
2026-04-25 09:42 50.67338 10.99470 4468 ft 140 kts 202°
2026-04-25 09:42 50.66439 10.99132 4527 ft 127 kts 197°
2026-04-25 09:42 50.65517 10.98826 4285 ft 145 kts 196°
2026-04-25 09:42 50.64587 10.98617 4337 ft 133 kts 191°
2026-04-25 09:43 50.63633 10.98460 4087 ft 141 kts 192°
2026-04-25 09:43 50.62689 10.98310 4051 ft 130 kts 192°
2026-04-25 09:43 50.61796 10.98103 3958 ft 133 kts 195°
2026-04-25 09:43 50.60906 10.97812 3975 ft 126 kts 199°
2026-04-25 09:44 50.60032 10.97503 3925 ft 130 kts 197°
2026-04-25 09:44 50.59177 10.97234 3981 ft 123 kts 199°
2026-04-25 09:44 50.58314 10.96839 3833 ft 133 kts 203°
2026-04-25 09:44 50.57462 10.96449 3861 ft 122 kts 204°
2026-04-25 09:45 50.56671 10.96119 3956 ft 117 kts 201°
2026-04-25 09:45 50.55822 10.95902 4056 ft 133 kts 188°
2026-04-25 09:45 50.54879 10.95709 3929 ft 137 kts 201°
2026-04-25 09:45 50.54047 10.95332 4087 ft 122 kts 200°
2026-04-25 09:46 50.53198 10.94945 3941 ft 136 kts 201°
2026-04-25 09:46 50.52258 10.94621 3983 ft 129 kts 194°
2026-04-25 09:46 50.51370 10.94537 3988 ft 136 kts 180°
2026-04-25 09:46 50.50431 10.94775 3944 ft 137 kts 174°
2026-04-25 09:47 50.49497 10.94886 3917 ft 133 kts 187°
2026-04-25 09:47 50.48606 10.94653 4012 ft 123 kts 197°
2026-04-25 09:47 50.47745 10.94415 4032 ft 127 kts 196°
2026-04-25 09:47 50.46898 10.94083 3963 ft 129 kts 197°
2026-04-25 09:48 50.46023 10.93751 4019 ft 120 kts 203°
2026-04-25 09:48 50.45216 10.93196 3994 ft 134 kts 213°
2026-04-25 09:48 50.44343 10.92759 3985 ft 130 kts 194°
2026-04-25 09:48 50.43486 10.92500 3996 ft 129 kts 193°
2026-04-25 09:49 50.42559 10.92324 3985 ft 126 kts 194°
2026-04-25 09:49 50.41704 10.92132 4122 ft 125 kts 192°
2026-04-25 09:49 50.40830 10.92036 4277 ft 120 kts 189°
2026-04-25 09:49 50.39951 10.91963 4276 ft 128 kts 188°
2026-04-25 09:50 50.39061 10.91957 4229 ft 131 kts 182°
2026-04-25 09:50 50.38146 10.91991 4216 ft 131 kts 181°
2026-04-25 09:50 50.37263 10.92293 4285 ft 131 kts 159°
2026-04-25 09:50 50.36384 10.92729 4403 ft 134 kts 171°
2026-04-25 09:51 50.35519 10.93125 4402 ft 131 kts 171°
2026-04-25 09:51 50.34609 10.93338 4458 ft 130 kts 177°
2026-04-25 09:51 50.33736 10.93594 4583 ft 128 kts 175°
2026-04-25 09:51 50.32872 10.93775 4827 ft 122 kts 176°
2026-04-25 09:52 50.32020 10.94057 4893 ft 125 kts 173°
2026-04-25 09:52 50.31143 10.94415 4813 ft 133 kts 174°
2026-04-25 09:52 50.30254 10.94494 4863 ft 131 kts 191°
2026-04-25 09:52 50.29370 10.94262 4897 ft 126 kts 196°
2026-04-25 09:53 50.28489 10.94161 4851 ft 129 kts 186°
2026-04-25 09:53 50.27596 10.94126 4873 ft 125 kts 189°
2026-04-25 09:53 50.26729 10.93978 4920 ft 130 kts 193°
2026-04-25 09:53 50.25837 10.93792 4925 ft 127 kts 191°
2026-04-25 09:54 50.24946 10.93680 4897 ft 132 kts 188°
2026-04-25 09:54 50.24052 10.93702 4946 ft 127 kts 181°
2026-04-25 09:54 50.23147 10.93771 4845 ft 131 kts 184°
2026-04-25 09:54 50.22244 10.93827 4926 ft 129 kts 177°
2026-04-25 09:55 50.21343 10.93787 4855 ft 131 kts 197°
2026-04-25 09:55 50.20474 10.93489 4866 ft 126 kts 195°
2026-04-25 09:55 50.19597 10.93273 4872 ft 128 kts 195°
2026-04-25 09:55 50.18738 10.93045 4896 ft 127 kts 197°
2026-04-25 09:56 50.17861 10.92854 4930 ft 130 kts 189°
2026-04-25 09:56 50.16959 10.92814 4971 ft 131 kts 190°
2026-04-25 09:56 50.16067 10.92790 5081 ft 129 kts 180°
2026-04-25 09:56 50.15151 10.92929 5100 ft 135 kts 178°
2026-04-25 09:57 50.14247 10.93014 5210 ft 128 kts 183°
2026-04-25 09:57 50.13341 10.93093 5197 ft 132 kts 179°
2026-04-25 09:57 50.12425 10.93146 5264 ft 130 kts 186°
2026-04-25 09:57 50.11532 10.93006 5318 ft 133 kts 194°
2026-04-25 09:58 50.09865 10.92928 5524 ft 130 kts 182°
2026-04-25 09:58 50.08951 10.92976 5472 ft 130 kts 183°
2026-04-25 09:58 50.08053 10.93090 5457 ft 135 kts 179°
2026-04-25 09:59 50.07143 10.93279 5536 ft 128 kts 172°
2026-04-25 09:59 50.06264 10.93685 5431 ft 136 kts 166°
2026-04-25 09:59 50.05382 10.94123 5433 ft 131 kts 172°
2026-04-25 09:59 50.04470 10.94166 5353 ft 131 kts 193°
2026-04-25 10:00 50.03591 10.93895 5463 ft 127 kts 202°
2026-04-25 10:00 50.02764 10.93444 5516 ft 124 kts 207°
2026-04-25 10:00 50.01937 10.92981 5439 ft 131 kts 207°
2026-04-25 10:00 50.01113 10.92460 5540 ft 126 kts 207°
2026-04-25 10:01 50.00298 10.91905 5469 ft 129 kts 213°
2026-04-25 10:01 49.99506 10.91278 5454 ft 125 kts 213°
2026-04-25 10:01 49.98718 10.90749 5430 ft 126 kts 205°
2026-04-25 10:01 49.97873 10.90290 5430 ft 127 kts 203°
2026-04-25 10:02 49.97007 10.90011 5549 ft 125 kts 193°
2026-04-25 10:02 49.96131 10.89838 5498 ft 129 kts 190°
2026-04-25 10:02 49.95233 10.89776 5440 ft 130 kts 187°
2026-04-25 10:02 49.94338 10.89674 5392 ft 130 kts 194°
2026-04-25 10:03 49.93457 10.89378 5482 ft 125 kts 199°
2026-04-25 10:03 49.92607 10.89101 5487 ft 129 kts 195°
2026-04-25 10:03 49.91711 10.88812 5483 ft 126 kts 198°
2026-04-25 10:03 49.90862 10.88525 5449 ft 130 kts 199°
2026-04-25 10:04 49.89961 10.88338 5533 ft 127 kts 185°
2026-04-25 10:04 49.89081 10.88195 5522 ft 130 kts 201°
2026-04-25 10:04 49.88312 10.87508 5394 ft 129 kts 226°
2026-04-25 10:04 49.87637 10.86536 5084 ft 137 kts 231°
2026-04-25 10:05 49.86921 10.85480 4927 ft 143 kts 223°
2026-04-25 10:05 49.86126 10.84570 4896 ft 144 kts 224°
2026-04-25 10:05 49.85380 10.83593 4823 ft 141 kts 229°
2026-04-25 10:05 49.84741 10.82498 4685 ft 135 kts 236°
2026-04-25 10:06 49.84177 10.81299 4396 ft 139 kts 240°
2026-04-25 10:06 49.83625 10.80102 4232 ft 136 kts 241°
2026-04-25 10:06 49.83245 10.78773 4130 ft 134 kts 258°
2026-04-25 10:06 49.82857 10.77469 4128 ft 135 kts 238°
2026-04-25 10:07 49.82209 10.76416 4067 ft 134 kts 228°
2026-04-25 10:07 49.81523 10.75470 3999 ft 137 kts 211°
2026-04-25 10:07 49.80623 10.75177 4169 ft 121 kts 201°
2026-04-25 10:07 49.79792 10.74765 4166 ft 122 kts 204°
2026-04-25 10:08 49.78956 10.74336 3950 ft 129 kts 204°
2026-04-25 10:08 49.78116 10.73909 3877 ft 129 kts 203°
2026-04-25 10:08 49.77189 10.73900 3951 ft 130 kts 176°
2026-04-25 10:08 49.76333 10.74090 3902 ft 126 kts 179°
2026-04-25 10:09 49.75462 10.74114 3950 ft 126 kts 193°
2026-04-25 10:09 49.74608 10.73772 4014 ft 121 kts 200°
2026-04-25 10:09 49.73769 10.73493 4023 ft 120 kts 200°
2026-04-25 10:09 49.72941 10.73169 3919 ft 122 kts 199°
2026-04-25 10:10 49.72157 10.72782 3950 ft 114 kts 208°
2026-04-25 10:10 49.71375 10.72374 3795 ft 126 kts 197°
2026-04-25 10:10 49.70586 10.72236 3970 ft 109 kts 190°
2026-04-25 10:10 49.69798 10.72288 3927 ft 118 kts 172°
2026-04-25 10:11 49.69024 10.72669 3972 ft 117 kts 161°
2026-04-25 10:11 49.68266 10.73141 3951 ft 118 kts 163°
2026-04-25 10:11 49.67482 10.73466 3968 ft 115 kts 176°
2026-04-25 10:11 49.66688 10.73377 3951 ft 114 kts 200°
2026-04-25 10:12 49.65935 10.73090 3984 ft 112 kts 199°
2026-04-25 10:12 49.65144 10.72911 4002 ft 113 kts 188°
2026-04-25 10:12 49.63572 10.72946 4029 ft 114 kts 178°
2026-04-25 10:13 49.62792 10.73327 4019 ft 119 kts 159°
2026-04-25 10:13 49.62053 10.73838 4040 ft 117 kts 170°
2026-04-25 10:13 49.61264 10.73731 4066 ft 109 kts 199°
2026-04-25 10:13 49.60513 10.73443 4045 ft 113 kts 200°
2026-04-25 10:14 49.59742 10.73221 4067 ft 113 kts 188°
2026-04-25 10:14 49.58960 10.73253 4075 ft 111 kts 184°
2026-04-25 10:14 49.58209 10.73068 3994 ft 114 kts 200°
2026-04-25 10:14 49.57442 10.72691 4056 ft 115 kts 200°
2026-04-25 10:15 49.56671 10.72262 4093 ft 117 kts 207°
2026-04-25 10:15 49.55897 10.71812 3880 ft 130 kts 209°
2026-04-25 10:15 49.55102 10.71279 3980 ft 120 kts 205°
2026-04-25 10:15 49.54278 10.70932 3867 ft 129 kts 194°
2026-04-25 10:16 49.53431 10.70829 3950 ft 117 kts 188°
2026-04-25 10:16 49.52619 10.70670 3946 ft 116 kts 197°
2026-04-25 10:16 49.51845 10.70438 4119 ft 112 kts 192°
2026-04-25 10:16 49.50971 10.70343 3984 ft 131 kts 189°
2026-04-25 10:17 49.50125 10.70403 4026 ft 123 kts 178°
2026-04-25 10:17 49.49261 10.70531 4048 ft 127 kts 181°
2026-04-25 10:17 49.48392 10.70727 4120 ft 121 kts 174°
2026-04-25 10:17 49.47556 10.70977 4147 ft 124 kts 170°
2026-04-25 10:18 49.46692 10.71277 4151 ft 127 kts 175°
2026-04-25 10:18 49.45825 10.71524 4116 ft 134 kts 173°
2026-04-25 10:18 49.44942 10.71746 4168 ft 127 kts 176°
2026-04-25 10:18 49.44054 10.71946 4132 ft 129 kts 174°
2026-04-25 10:19 49.43208 10.72390 4142 ft 129 kts 158°
2026-04-25 10:19 49.42378 10.72996 4084 ft 132 kts 158°
2026-04-25 10:19 49.41556 10.73581 4081 ft 128 kts 160°
2026-04-25 10:19 49.40702 10.74074 4138 ft 131 kts 159°
2026-04-25 10:20 49.39923 10.74775 4199 ft 127 kts 152°
2026-04-25 10:20 49.39118 10.75314 4062 ft 129 kts 168°
2026-04-25 10:20 49.38245 10.75608 3989 ft 127 kts 173°
2026-04-25 10:20 49.37368 10.75881 4120 ft 126 kts 166°
2026-04-25 10:21 49.36505 10.76285 4203 ft 129 kts 166°
2026-04-25 10:21 49.35680 10.76707 4144 ft 126 kts 165°
2026-04-25 10:21 49.34814 10.77216 4189 ft 136 kts 161°
2026-04-25 10:21 49.33939 10.77800 4259 ft 134 kts 164°
2026-04-25 10:22 49.33037 10.78278 4245 ft 140 kts 163°
2026-04-25 10:22 49.32455 10.78632 4235 ft 134 kts 161°
2026-04-25 10:22 49.31261 10.79282 4036 ft 135 kts 169°
2026-04-25 10:22 49.30340 10.79623 4016 ft 131 kts 168°
2026-04-25 10:23 49.29510 10.80271 3876 ft 141 kts 155°
2026-04-25 10:23 49.28609 10.80603 3995 ft 132 kts 186°
2026-04-25 10:23 49.27713 10.80613 4028 ft 129 kts 186°
2026-04-25 10:23 49.26788 10.80487 4043 ft 135 kts 194°
2026-04-25 10:24 49.25875 10.80253 4095 ft 131 kts 185°
2026-04-25 10:24 49.24953 10.80472 4016 ft 137 kts 171°
2026-04-25 10:24 49.24051 10.80750 3973 ft 132 kts 174°
2026-04-25 10:24 49.23143 10.80971 3979 ft 125 kts 172°
2026-04-25 10:25 49.22243 10.80964 3992 ft 135 kts 190°
2026-04-25 10:25 49.21320 10.80827 4024 ft 135 kts 192°
2026-04-25 10:25 49.20404 10.80578 4109 ft 133 kts 191°
2026-04-25 10:25 49.19476 10.80608 3988 ft 136 kts 177°
2026-04-25 10:26 49.18556 10.80861 3956 ft 125 kts 168°
2026-04-25 10:26 49.17728 10.81257 3770 ft 136 kts 166°
2026-04-25 10:26 49.16874 10.81600 3942 ft 126 kts 168°
2026-04-25 10:26 49.15957 10.81809 3759 ft 131 kts 179°
2026-04-25 10:27 49.15071 10.81922 3781 ft 133 kts 178°
2026-04-25 10:27 49.14191 10.82001 4024 ft 120 kts 185°
2026-04-25 10:27 49.13342 10.81934 3891 ft 132 kts 186°
2026-04-25 10:27 49.12416 10.82004 3755 ft 129 kts 180°
2026-04-25 10:28 49.11530 10.82094 3755 ft 127 kts 182°
2026-04-25 10:28 49.10698 10.82341 3902 ft 117 kts 169°
2026-04-25 10:28 49.09872 10.82720 3667 ft 132 kts 161°
2026-04-25 10:28 49.09095 10.83341 3776 ft 122 kts 142°
2026-04-25 10:29 49.08424 10.84116 3920 ft 113 kts 146°
2026-04-25 10:29 49.07699 10.84652 3887 ft 123 kts 162°
2026-04-25 10:29 49.06855 10.85103 3917 ft 129 kts 168°
2026-04-25 10:29 49.05970 10.85481 3866 ft 134 kts 167°
2026-04-25 10:30 49.05046 10.85792 3979 ft 134 kts 173°
2026-04-25 10:30 49.04449 10.85914 3974 ft 126 kts 181°
2026-04-25 10:30 49.03260 10.85872 3909 ft 118 kts 187°
2026-04-25 10:30 49.02432 10.85839 3954 ft 125 kts 186°
2026-04-25 10:31 49.01478 10.85774 3841 ft 137 kts 193°
2026-04-25 10:31 49.00637 10.85630 4144 ft 118 kts 189°
2026-04-25 10:31 48.99777 10.85506 4133 ft 127 kts 193°
2026-04-25 10:31 48.98885 10.85304 3884 ft 136 kts 194°
2026-04-25 10:32 48.97946 10.85089 3814 ft 129 kts 191°
2026-04-25 10:32 48.97053 10.84884 3685 ft 127 kts 196°
2026-04-25 10:32 48.96217 10.84647 3684 ft 120 kts 195°
2026-04-25 10:32 48.95407 10.84448 3735 ft 114 kts 195°
2026-04-25 10:33 48.94631 10.84240 3745 ft 111 kts 195°
2026-04-25 10:33 48.93909 10.84114 3906 ft 95 kts 191°
2026-04-25 10:33 48.93204 10.84063 3812 ft 113 kts 188°
2026-04-25 10:33 48.92502 10.83681 3720 ft 108 kts 216°
2026-04-25 10:34 48.91818 10.83088 3593 ft 118 kts 208°
2026-04-25 10:34 48.91064 10.82756 3620 ft 113 kts 202°
2026-04-25 10:34 48.90272 10.82349 3880 ft 118 kts 205°
2026-04-25 10:34 48.89435 10.81974 3967 ft 125 kts 200°
2026-04-25 10:35 48.88620 10.81666 3976 ft 125 kts 204°
2026-04-25 10:35 48.87813 10.81189 4081 ft 120 kts 204°
2026-04-25 10:35 48.86991 10.80953 4096 ft 121 kts 195°
2026-04-25 10:35 48.86110 10.80787 4008 ft 126 kts 187°
2026-04-25 10:36 48.85240 10.80733 4159 ft 125 kts 187°
2026-04-25 10:36 48.84396 10.81214 4123 ft 133 kts 160°
2026-04-25 10:36 48.83595 10.81603 4230 ft 122 kts 200°
2026-04-25 10:36 48.82925 10.80879 4302 ft 115 kts 226°
2026-04-25 10:37 48.82221 10.80264 4226 ft 120 kts 207°
2026-04-25 10:37 48.81360 10.80013 4258 ft 125 kts 188°
2026-04-25 10:37 48.80801 10.79994 4284 ft 122 kts 185°
2026-04-25 10:37 48.79928 10.80017 4414 ft 125 kts 182°
2026-04-25 10:38 48.79054 10.80073 4403 ft 126 kts 181°
2026-04-25 10:38 48.78170 10.80063 4280 ft 125 kts 197°
2026-04-25 10:38 48.77372 10.79649 4352 ft 126 kts 198°
2026-04-25 10:38 48.76514 10.79517 4400 ft 123 kts 197°
2026-04-25 10:39 48.75672 10.79236 4313 ft 124 kts 196°
2026-04-25 10:39 48.74811 10.79035 4200 ft 128 kts 189°
2026-04-25 10:39 48.73940 10.78951 4170 ft 124 kts 186°
2026-04-25 10:39 48.73057 10.79057 4110 ft 129 kts 175°
2026-04-25 10:40 48.72163 10.79272 4135 ft 134 kts 178°
2026-04-25 10:40 48.71309 10.79518 4436 ft 122 kts 167°
2026-04-25 10:40 48.70480 10.80043 4226 ft 136 kts 161°
2026-04-25 10:40 48.69696 10.80735 4343 ft 125 kts 143°
2026-04-25 10:41 48.68911 10.81370 4259 ft 128 kts 166°
2026-04-25 10:41 48.68063 10.81714 4344 ft 128 kts 166°
2026-04-25 10:41 48.67212 10.82131 4383 ft 128 kts 168°
2026-04-25 10:41 48.66327 10.82345 4421 ft 130 kts 179°
2026-04-25 10:42 48.65460 10.82499 4541 ft 124 kts 175°
2026-04-25 10:42 48.64602 10.82764 4445 ft 127 kts 172°
2026-04-25 10:42 48.63739 10.83045 4435 ft 129 kts 172°
2026-04-25 10:42 48.62860 10.83374 4424 ft 132 kts 168°
2026-04-25 10:43 48.61962 10.83719 4477 ft 136 kts 173°
2026-04-25 10:43 48.61075 10.83791 4683 ft 120 kts 191°
2026-04-25 10:43 48.60203 10.83773 4585 ft 134 kts 174°
2026-04-25 10:43 48.59312 10.83976 4752 ft 123 kts 184°
2026-04-25 10:44 48.58437 10.84019 4774 ft 132 kts 177°
2026-04-25 10:44 48.57554 10.84257 4836 ft 128 kts 175°
2026-04-25 10:44 48.56663 10.84445 4782 ft 128 kts 174°
2026-04-25 10:44 48.55785 10.84665 4739 ft 133 kts 177°
2026-04-25 10:45 48.54903 10.84806 4800 ft 124 kts 178°
2026-04-25 10:45 48.54008 10.84948 4802 ft 129 kts 181°
2026-04-25 10:45 48.53112 10.85009 4864 ft 130 kts 178°
2026-04-25 10:45 48.52248 10.85063 4880 ft 122 kts 185°
2026-04-25 10:46 48.51368 10.85033 4940 ft 131 kts 184°
2026-04-25 10:46 48.50485 10.85145 4969 ft 127 kts 178°
2026-04-25 10:46 48.49589 10.85245 4870 ft 127 kts 184°
2026-04-25 10:46 48.48717 10.85292 4812 ft 126 kts 179°
2026-04-25 10:47 48.47820 10.85425 4787 ft 132 kts 181°
2026-04-25 10:47 48.46925 10.85534 4777 ft 128 kts 180°
2026-04-25 10:47 48.46032 10.85700 4778 ft 131 kts 174°
2026-04-25 10:47 48.45157 10.85923 4914 ft 123 kts 177°
2026-04-25 10:48 48.44312 10.86040 4935 ft 120 kts 178°
2026-04-25 10:48 48.43471 10.86181 4943 ft 125 kts 179°
2026-04-25 10:48 48.42604 10.86318 5002 ft 126 kts 179°
2026-04-25 10:48 48.41715 10.86372 5028 ft 127 kts 180°
2026-04-25 10:49 48.40817 10.86534 5025 ft 131 kts 176°
2026-04-25 10:49 48.39936 10.86691 5004 ft 127 kts 177°
2026-04-25 10:49 48.39050 10.86698 4918 ft 130 kts 186°
2026-04-25 10:49 48.38165 10.86833 4984 ft 127 kts 167°
2026-04-25 10:50 48.37381 10.87482 4962 ft 129 kts 147°
2026-04-25 10:50 48.36654 10.88288 4899 ft 132 kts 141°
2026-04-25 10:50 48.36046 10.89334 4951 ft 131 kts 121°
2026-04-25 10:50 48.35689 10.90561 4900 ft 131 kts 105°
2026-04-25 10:51 48.35456 10.91922 4916 ft 131 kts 100°
2026-04-25 10:51 48.35241 10.93235 4948 ft 129 kts 104°
2026-04-25 10:51 48.35037 10.94541 4907 ft 133 kts 104°
2026-04-25 10:51 48.34540 10.95731 4924 ft 136 kts 142°
2026-04-25 10:52 48.33760 10.96444 5026 ft 131 kts 158°
2026-04-25 10:52 48.32928 10.96988 5015 ft 132 kts 160°
2026-04-25 10:52 48.32090 10.97507 4973 ft 132 kts 166°
2026-04-25 10:52 48.31239 10.97901 5003 ft 125 kts 167°
2026-04-25 10:53 48.30376 10.98294 4961 ft 133 kts 166°
2026-04-25 10:53 48.29506 10.98577 4976 ft 126 kts 178°
2026-04-25 10:53 48.28610 10.98643 4839 ft 131 kts 178°
2026-04-25 10:53 48.27776 10.99174 4747 ft 133 kts 144°
2026-04-25 10:54 48.27055 10.99998 4709 ft 129 kts 146°
2026-04-25 10:54 48.26548 11.00542 4725 ft 134 kts 151°
2026-04-25 10:54 48.25674 11.01673 4718 ft 131 kts 127°
2026-04-25 10:54 48.25136 11.02763 4655 ft 130 kts 126°
2026-04-25 10:55 48.24622 11.03915 4520 ft 138 kts 124°
2026-04-25 10:55 48.24149 11.05166 4579 ft 133 kts 118°
2026-04-25 10:55 48.23749 11.06386 4639 ft 134 kts 120°
2026-04-25 10:55 48.23222 11.07565 4816 ft 134 kts 129°
2026-04-25 10:56 48.22671 11.08694 5005 ft 131 kts 130°
2026-04-25 10:56 48.22103 11.09792 4873 ft 137 kts 131°
2026-04-25 10:56 48.21479 11.10811 4904 ft 131 kts 140°
2026-04-25 10:56 48.20665 11.11396 4783 ft 124 kts 175°
2026-04-25 10:57 48.19812 11.11521 4486 ft 135 kts 184°
2026-04-25 10:57 48.18907 11.11462 4202 ft 128 kts 191°
2026-04-25 10:57 48.18007 11.11275 3682 ft 133 kts 199°
2026-04-25 10:57 48.17156 11.10705 3164 ft 130 kts 211°
2026-04-25 10:58 48.16372 11.10118 3023 ft 113 kts 211°
2026-04-25 10:58 48.15687 11.09577 2903 ft 109 kts 218°
2026-04-25 10:58 48.15062 11.09141 3130 ft 94 kts 200°
2026-04-25 10:58 48.14407 11.09095 3193 ft 94 kts 177°
2026-04-25 10:59 48.13764 11.09279 3313 ft 92 kts 176°
2026-04-25 10:59 48.13071 11.09527 3326 ft 112 kts 163°
2026-04-25 10:59 48.12326 11.09931 3407 ft 116 kts 162°
2026-04-25 10:59 48.11547 11.10332 3505 ft 124 kts 168°
2026-04-25 11:00 48.10698 11.10723 3624 ft 129 kts 160°
2026-04-25 11:00 48.09969 11.11448 3683 ft 131 kts 127°
2026-04-25 11:00 48.09472 11.12595 3585 ft 132 kts 126°
2026-04-25 11:00 48.08972 11.13847 3283 ft 142 kts 117°
2026-04-25 11:01 48.08594 11.15068 3071 ft 124 kts 112°
2026-04-25 11:01 48.08333 11.16320 2882 ft 125 kts 104°
2026-04-25 11:01 48.08250 11.17550 2764 ft 113 kts 97°
2026-04-25 11:01 48.08232 11.18654 2701 ft 102 kts 83°
2026-04-25 11:02 48.08332 11.19677 2701 ft 105 kts 78°
2026-04-25 11:02 48.08479 11.20770 2738 ft 111 kts 82°
2026-04-25 11:02 48.08579 11.21950 2741 ft 116 kts 77°
2026-04-25 11:02 48.08755 11.23192 2758 ft 118 kts 72°
2026-04-25 11:03 48.09095 11.24273 2738 ft 114 kts 54°
2026-04-25 11:03 48.09509 11.25199 2814 ft 101 kts 53°
2026-04-25 11:03 48.09928 11.26123 2710 ft 111 kts 53°
2026-04-25 11:03 48.10401 11.26998 2758 ft 108 kts 47°
2026-04-25 11:04 48.10905 11.27891 2630 ft 114 kts 47°
2026-04-25 11:04 48.11424 11.28735 2646 ft 111 kts 44°
2026-04-25 11:04 48.11958 11.29611 2653 ft 113 kts 46°
2026-04-25 11:04 48.12278 11.30167 2769 ft 93 kts 45°
2026-04-25 11:05 48.12841 11.31131 2754 ft 91 kts 41°
2026-04-25 11:05 48.13400 11.31702 2666 ft 107 kts 27°
2026-04-25 11:05 48.13735 11.32669 2530 ft 119 kts 101°
2026-04-25 11:05 48.13286 11.33613 2374 ft 111 kts 158°
2026-04-25 11:06 48.12549 11.33714 2272 ft 102 kts 200°
2026-04-25 11:06 48.11947 11.33259 2262 ft 94 kts 217°
2026-04-25 11:06 48.11428 11.32727 2296 ft 89 kts 221°
2026-04-25 11:06 48.10944 11.32146 2320 ft 90 kts 224°
2026-04-25 11:07 48.10487 11.31494 2296 ft 93 kts 228°
2026-04-25 11:07 48.09979 11.30864 2214 ft 97 kts 221°
2026-04-25 11:07 48.09488 11.30185 2132 ft 98 kts 227°
2026-04-25 11:07 48.08979 11.29478 1977 ft 99 kts 225°
2026-04-25 11:08 48.08571 11.28878 1907 ft 62 kts 219°
2026-04-25 11:08 48.08321 11.28535 1916 ft 39 kts 221°
2026-04-25 11:08 48.08159 11.28316 1921 ft 23 kts 234°
2026-04-25 11:08 48.08198 11.28189 1923 ft 12 kts 313°
2026-04-25 11:09 48.08252 11.28103 1923 ft 8 kts 319°
2026-04-25 11:09 48.08293 11.28044 1923 ft 8 kts 342°
2026-04-25 11:09 48.08349 11.28107 1921 ft 14 kts 43°
2026-04-25 11:09 48.08434 11.28223 1918 ft 19 kts 41°
2026-04-25 11:10 48.08547 11.28379 1914 ft 25 kts 41°
2026-04-25 11:10 48.08635 11.28503 1910 ft 28 kts 44°
2026-04-25 11:10 48.08751 11.28501 1908 ft 13 kts 323°
2026-04-25 11:10 48.08824 11.28472 1899 ft 13 kts 67°
2026-04-25 11:11 48.08870 11.28577 1905 ft 10 kts 342°
2026-04-25 11:11 48.08897 11.28576 1904 ft 0 kts 25°
2026-04-25 11:11 48.08887 11.28572 1904 ft 2 kts 30°
2026-04-25 11:11 48.08882 11.28565 1898 ft 0 kts 60°